Regional Weather Roundup
Issued by NWS

Home | Current Version | Previous Version | Text Only | Print | Product List | Glossary Off
Versions: 1 2 3 4 5 6 7 8 9 10 11 12 13 14 15 16 17 18 19 20 21 22 23 24 25 26 27 28 29 30 31 32 33 34 35 36 37 38 39 40 41 42 43 44 45 46 47 48 49 50

000
ASUS43 KMPX 181510
RWRMN
WEATHER ROUNDUP FOR MINNESOTA
NATIONAL WEATHER SERVICE TWIN CITIES/CHANHASSEN MN
900 AM CST THU JAN 18 2018


NOTE: "FAIR" INDICATES FEW OR NO CLOUDS BELOW 12,000 FEET WITH NO
SIGNIFICANT WEATHER AND/OR OBSTRUCTIONS TO VISIBILITY. N/A MEANS
CURRENT SKY AND/OR WEATHER CONDITIONS ARE NOT AVAILABLE.

MNZ060>063-068>070-181600-
   Twin Cities Metro

CITY           SKY/WX    TMP DP  RH WIND       PRES   REMARKS
TWIN CITIES    FAIR      24  18  77 SW8       29.88F WCI  15
ST PAUL        FAIR      20  16  84 SE6       29.89F WCI  12
CRYSTAL        FAIR      24  16  71 SW8       29.85F WCI  15
BLAINE         PTCLDY    27  19  74 SW10      29.84F WCI  17
LAKEVILLE      FAIR      21  18  86 SW3       29.89S
EDEN PRAIRIE   FAIR      22  16  78 SW7       29.87S WCI  13
SOUTH ST PAUL  FAIR      21  16  81 CALM      29.88F
LAKE ELMO      FAIR      23  18  80 S9        29.87S WCI  13
$$
MNZ001>005-007-008-013>017-022>024-027-028-181600-
   Northwest Minnesota

CITY           SKY/WX    TMP DP  RH WIND       PRES   REMARKS
BEMIDJI        CLOUDY    30  25  80 W12       29.73R WCI  21
HALLOCK        CLOUDY    25  18  74 N6        29.75F WCI  18
ROSEAU         CLOUDY    25  18  74 W8        29.74R WCI  16
WARROAD        FAIR      21  18  86 W10       29.74R WCI  10
THIEF RVR FALL CLOUDY    27  22  81 W6        29.77  WCI  20
CROOKSTON      FAIR      19  16  86 CALM      29.78F
FOSSTON        CLOUDY    21  18  86 SW3       29.77S
DETROIT LAKES  FAIR      28  21  74 W7        29.79R WCI  21
MOORHEAD       FAIR      19  16  86 SW6       29.82R WCI  11
PARK RAPIDS    FAIR      23  17  78 W9        29.75R WCI  13
MAHNOMEN       FAIR      20  16  84 W6        29.77S WCI  12
$$
MNZ006-009>011-018-025>026-181600-
   North Central Minnesota

CITY           SKY/WX    TMP DP  RH WIND       PRES   REMARKS
BAUDETTE       CLOUDY    27  23  85 W7        29.69R WCI  19
FLAG ISLAND    CLOUDY    25  18  74 W13       29.69S WCI  13
INTL FALLS     CLOUDY    29  24  82 W12       29.67R WCI  19
WASKISH        CLOUDY    28  23  80 W12       29.73R WCI  18
BIG FORK       CLOUDY    32  25  74 NW7       29.70R WCI  26
LONGVILLE      CLOUDY    28  21  74 SW6       29.74R WCI  22
GRAND RAPIDS   CLOUDY    32  24  72 W8        29.73R WCI  25
CRANE LAKE     CLOUDY    30  28  93 CALM      29.68R
ORR            CLOUDY    30  25  80 W8        29.65R WCI  23
COOK           CLOUDY    30  25  80 W14       29.68R WCI  20
WALKER         CLOUDY    31  23  72 W9        29.74R WCI  23
$$
MNZ012-019>021-037-181600-
   Northeast Minnesota

CITY           SKY/WX    TMP DP  RH WIND       PRES   REMARKS
DULUTH         MOCLDY    31  22  69 W14       29.69S WCI  21
ELY            CLOUDY    27  27 100 SW5       29.66R WCI  21
HIBBING        CLOUDY    29  23  78 W6        29.69R WCI  23
EVELETH        CLOUDY    26  20  77 W5        29.70R WCI  21
DULUTH HARBOR  MOCLDY    30  23  74 SW15      29.74S WCI  19
TWO HARBORS    MOCLDY    34  25  69 SW6       29.68R WCI  29
GRAND MARAIS     N/A     30  27  88 W6        29.67S WCI  24
G MARAIS ARPRT CLOUDY    27  21  80 W3        29.62R
$$
MNZ029>031-032-039>041-046>048-054>057-064-181600-
   West Central Minnesota

CITY           SKY/WX    TMP DP  RH WIND       PRES   REMARKS
FERGUS FALLS   FAIR      19  18  93 W6        29.83R WCI  11
WHEATON        CLOUDY    30  21  69 W8        29.85R WCI  23
MORRIS         CLOUDY    27  19  74 SW7       29.83S WCI  19
ALEXANDRIA     FAIR      33  22  63 W9        29.81S WCI  25
ELBOW LAKE     FAIR      20  17  88 SW5       29.83S FOG     WCI  14
WADENA         FAIR      25  19  80 W9        29.78R WCI  15
GLENWOOD       FAIR      27  21  80 W8        29.83R WCI  18
APPLETON       CLOUDY    21  18  86 E3        29.85S
BENSON         CLOUDY    19  16  86 CALM      29.86S
ORTONVILLE     CLOUDY    36  21  55 NW8       29.84S
MADISON        CLOUDY    39  25  56 W12       29.84F
WILLMAR        FAIR      19  18  93 W5        29.88S WCI  13
$$
MNZ033>034-036-042>043-049>051-058-059-181600-
   Central Minnesota

CITY           SKY/WX    TMP DP  RH WIND       PRES   REMARKS
ST CLOUD       FAIR      20  17  88 SW5       29.82S WCI  13
SAUK CENTRE      N/A     22  17  79 CALM      29.82S
PAYNESVILLE    FAIR      27  23  84 SW12      29.84F WCI  17
AITKIN         FAIR      28  19  69 SW6       29.75R WCI  22
PINE RIVER     FAIR      27  19  74 W5        29.80R WCI  21
BRAINERD       FAIR      29  20  69 W10       29.78R WCI  20
STAPLES        FAIR      25  18  74 W9        29.79R WCI  15
LONG PRAIRIE   FAIR      23  18  80 S3        29.81R
LITTLE FALLS   FAIR      28  16  59 W3        29.80S
LITCHFIELD     FAIR      28  21  74 SW6       29.86R WCI  22
BUFFALO        FAIR      22  17  82 S5        29.87R WCI  16
MAPLE LAKE     FAIR      25  20  82 MISG      29.85S
HUTCHINSON     FAIR      24  19  83 SW3       29.87S
$$
MNZ037-044-045-052-053-181600-
   East Central Minnesota

CITY           SKY/WX    TMP DP  RH WIND       PRES   REMARKS
PRINCETON      FAIR      27  19  74 SW6       29.82R WCI  20
MORA           FAIR      23  18  80 CALM      29.82R
CAMBRIDGE      FAIR      28  18  64 SW7       29.82S WCI  21
RUSH CITY      FAIR      27  19  71 SW7       29.82R WCI  19
MOOSE LAKE     FAIR      23  19  86 CALM      29.74S
HINCKLEY       FAIR      25  19  80 SW6       29.79S WCI  18
CLOQUET        CLOUDY    25  18  74 SW6       29.72S WCI  18
MCGREGOR       FAIR      32  23  69 W7        29.75R WCI  26
$$
MNZ071>073-080-081-089-090-097-098-181600-
   Southwest Minnesota

CITY           SKY/WX    TMP DP  RH WIND       PRES   REMARKS
MONTEVIDEO     CLOUDY    30  25  80 W5        29.85S WCI  25
GRANITE FALLS  CLOUDY    28  22  76 S13       29.88S WCI  18
CANBY          CLOUDY    38  23  53 SW21G26   29.84S
MARSHALL       CLOUDY    34  21  59 SW16      29.87S WCI  24
REDWOOD FALLS  CLOUDY    28  20  71 SW14      29.88S WCI  17
OLIVIA         CLOUDY    28  21  74 SW10      29.86S WCI  19
PIPESTONE      CLOUDY    19  16  86 SW6       29.91S WCI  11
WINDOM         CLOUDY    25   9  50 SW9       29.92S WCI  15
WORTHINGTON    CLOUDY    22  17  81 SW13      29.93S WCI  10
JACKSON        CLOUDY    23  18  80 SW14      29.93F WCI  11
SLAYTON        CLOUDY    23  18  82 S10       29.90F WCI  12
$$
MNZ065>067-074>077-082>085-091>093-181600-
   South Central Minnesota

CITY           SKY/WX    TMP DP  RH WIND       PRES   REMARKS
MANKATO        FAIR      23  17  78 S9        29.91S WCI  13
NEW ULM        CLOUDY    25  18  74 W5        29.90R WCI  19
ST JAMES       CLOUDY    27  21  80 SW10      29.91F WCI  17
FAIRMONT       CLOUDY    25  19  78 SW17      29.93F WCI  12
GLENCOE        FAIR      23  19  86 SW5       29.87S WCI  17
FARIBAULT      FAIR      21  16  79 S12       29.91S WCI   9
OWATONNA       FAIR      21  16  79 S8        29.91F WCI  12
WASECA         FAIR      21  18  86 SW13      29.93F WCI   9
ALBERT LEA     FAIR      21  16  79 SW9       29.92F WCI  11
$$
MNZ078>079-086>088-094>096-181600-
   Southeast Minnesota

CITY           SKY/WX    TMP DP  RH WIND       PRES   REMARKS
ROCHESTER      FAIR      19  15  84 S14       29.91S WCI   6
RED WING       FAIR      19  12  73 CALM      29.91S
STANTON        FAIR      24  17  76 S7        29.89F WCI  15
DODGE CENTER   FAIR      18  12  79 SW14      29.90S WCI   4
WINONA         FLURRIES  23  14  68 SE3       29.95F
PRESTON        FAIR      19  13  76 SW5       29.95R WCI  13
$$
ABBREVIATIONS USED IN REMARKS
   TC - TEMPERATURES IN CELSIUS
  WCI - WIND CHILL INDEX
   HX - HEAT INDEX
  VSB - VISIBILITY
$$




USA.gov is the U.S. government's official web portal to all federal, state and local government web resources and services.